Карточка аэропорта URMG

Внимание!
Информация на этой странице в стадии наполнения.
Если вы не увидели какой-то информации, или заметили неточность - пожалуйста сообщите нам!
Спасибо!
Команда RU-STAFF
Название аэропорта Грозный
Название аэропорта (англ.)Grozniy
Превышение545 ft. (166.1 m.)
Координаты43°23.292', 45°41.988'
Высота перехода1900 m
Эшелон переходаFL80
Коды ответчика2410-2417
Зона ОрВДРостов-на-Дону РПИ (URRV)
Данные METARURMG 252030Z 28003MPS 240V320 9999 SCT021CB BKN072 22/20 Q1008 R26/290250 NOSIG RMK QFE742/0989
Проноз погоды (TAF)URMG 252000Z 2521/2606 22003G08MPS 9999 BKN030 TEMPO 2521/2606 VRB06G14MPS 6000 -TSRA BKN016 BKN030CB
NOTAMshow/hide NOTAM
AWOS   TABLE

Информация о ВПП

ВПП Длина ВПП (м.) Покрытие Курс ВПП Частота ILS
082505Асфальтобетон80 
262505Асфальтобетон260108.7

Диспетчерские позиции

Позывной Наименование органа УВД Частота
URMG_TWRГрозный-Старт119.0
URMG_R_APPГрозный-Вышка120.200



Спутниковое изображение